Find STARLINK-37839

NORAD ID: 799500941 Int'l Des: 2026-130U Constellation: starlink operational

現在のビュー

3D地球を読み込み中...

About STARLINK-37839

STARLINK-37839 (NORAD 799500941) is a starlink constellation satellite launched Jun 7, 2026

STARLINK-37839について

説明を読み込み中...

次回通過

Passes for default location (London). Set your location on the main map for personalized predictions.

高度履歴

Loading altitude history...

軌道要素

1 99999C 2026130U 26163.05743056 .00465640 00000-0 699000-4 0 1633
2 99999 97.2793 182.7698 0011323 272.6546 165.7461 16.04334859 11
Epoch: Jun 12, 2026 • Age: 7 hours